| time (UTC) | temp C | wind direction | speed KPH | gust KPH | rain 1hr cm | rain 24hr cm | rain mn cm | humidity % | barometer mb |
| 20260506185141 | 20 | 56 | 4.8 | 4.8 | 0.00 | 0.00 | 0.00 | 42 | 1022.7 |
| 20260506184639 | 20 | 31 | 4.8 | 4.8 | 0.00 | 0.00 | 0.00 | 40 | 1022.7 |
| 20260506184136 | 20 | 351 | 6.4 | 8.0 | 0.00 | 0.00 | 0.00 | 40 | 1022.6 |
| 20260506183632 | 20 | 295 | 1.6 | 3.2 | 0.00 | 0.00 | 0.00 | 47 | 1022.8 |
| 20260506183128 | 20 | 296 | 3.2 | 3.2 | 0.00 | 0.00 | 0.00 | 46 | 1022.8 |
| 20260506182626 | 20 | 332 | 0.0 | 1.6 | 0.00 | 0.00 | 0.00 | 45 | 1022.9 |
| 20260506182122 | 20 | 42 | 4.8 | 8.0 | 0.00 | 0.00 | 0.00 | 45 | 1022.7 |
| 20260506181620 | 19 | 351 | 6.4 | 8.0 | 0.00 | 0.00 | 0.00 | 54 | 1022.8 |
| 20260506181118 | 19 | 41 | 8.0 | 8.0 | 0.00 | 0.00 | 0.00 | 46 | 1022.6 |
| 20260506180614 | 19 | 348 | 4.8 | 8.0 | 0.00 | 0.00 | 0.00 | 47 | 1022.7 |
| 20260506180111 | 18 | 35 | 3.2 | 3.2 | 0.00 | 0.00 | 0.00 | 48 | 1022.7 |
| 20260506175607 | 18 | 1 | 4.8 | 8.0 | 0.00 | 0.00 | 0.00 | 50 | 1022.9 |
| 20260506175103 | 18 | 357 | 6.4 | 8.0 | 0.00 | 0.00 | 0.00 | 49 | 1022.9 |
| 20260506174602 | 18 | 18 | 8.0 | 9.7 | 0.00 | 0.00 | 0.00 | 46 | 1022.8 |
| 20260506174058 | 18 | 54 | 3.2 | 4.8 | 0.00 | 0.00 | 0.00 | 52 | 1022.7 |
| 20260506173556 | 18 | 108 | 0.0 | 0.0 | 0.00 | 0.00 | 0.00 | 47 | 1022.9 |
| 20260506173052 | 18 | 139 | 1.6 | 3.2 | 0.00 | 0.00 | 0.00 | 48 | 1022.4 |
| 20260506172550 | 18 | 82 | 4.8 | 4.8 | 0.00 | 0.00 | 0.00 | 45 | 1022.6 |
| 20260506172046 | 18 | 42 | 1.6 | 3.2 | 0.00 | 0.00 | 0.00 | 46 | 1022.4 |
| 20260506171543 | 17 | 129 | 0.0 | 0.0 | 0.00 | 0.00 | 0.00 | 62 | 1022.9 |
| 20260506171040 | 17 | 111 | 3.2 | 3.2 | 0.00 | 0.00 | 0.00 | 54 | 1022.6 |
| 20260506170538 | 17 | 44 | 3.2 | 3.2 | 0.00 | 0.00 | 0.00 | 49 | 1022.4 |
| 20260506170030 | 17 | 135 | 3.2 | 3.2 | 0.00 | 0.00 | 0.00 | 54 | 1022.8 |
| 20260506165528 | 17 | 100 | 1.6 | 1.6 | 0.00 | 0.00 | 0.00 | 60 | 1022.3 |
| 20260506165024 | 16 | 109 | 0.0 | 0.0 | 0.00 | 0.00 | 0.00 | 59 | 1022.3 |
| 20260506164521 | 16 | 82 | 1.6 | 1.6 | 0.00 | 0.00 | 0.00 | 64 | 1022.4 |
| 20260506164018 | 16 | 81 | 3.2 | 4.8 | 0.00 | 0.00 | 0.00 | 64 | 1022.4 |
| 20260506163514 | 16 | 82 | 0.0 | 1.6 | 0.00 | 0.00 | 0.00 | 63 | 1022.4 |
| 20260506163010 | 15 | 78 | 1.6 | 1.6 | 0.00 | 0.00 | 0.00 | 62 | 1022.4 |
| 20260506162506 | 15 | 73 | 1.6 | 3.2 | 0.00 | 0.00 | 0.00 | 64 | 1022.4 |
| 20260506162004 | 15 | 70 | 0.0 | 0.0 | 0.00 | 0.00 | 0.00 | 67 | 1022.4 |
| 20260506161501 | 15 | 346 | 4.8 | 4.8 | 0.00 | 0.00 | 0.00 | 64 | 1022.2 |
| 20260506160958 | 15 | 77 | 0.0 | 0.0 | 0.00 | 0.00 | 0.00 | 65 | 1022.2 |
| 20260506160456 | 15 | 359 | 1.6 | 1.6 | 0.00 | 0.00 | 0.00 | 64 | 1022.3 |
| 20260506155953 | 15 | 8 | 4.8 | 4.8 | 0.00 | 0.00 | 0.00 | 67 | 1022.4 |
| 20260506155451 | 14 | 95 | 0.0 | 0.0 | 0.00 | 0.00 | 0.00 | 67 | 1022.4 |
| 20260506153623 | 12 | 75 | 0.0 | 0.0 | 0.00 | 0.00 | 0.00 | 70 | 1022.3 |
| 20260506153121 | 12 | 15 | 3.2 | 3.2 | 0.00 | 0.00 | 0.00 | 71 | 1022.3 |
| 20260506152617 | 12 | 8 | 3.2 | 3.2 | 0.00 | 0.00 | 0.00 | 69 | 1022.3 |
| 20260506152115 | 12 | 90 | 0.0 | 0.0 | 0.00 | 0.00 | 0.00 | 73 | 1022.2 |
| 20260506151613 | 12 | 14 | 1.6 | 3.2 | 0.00 | 0.00 | 0.00 | 72 | 1022.2 |
| 20260506151109 | 12 | 88 | 0.0 | 0.0 | 0.00 | 0.00 | 0.00 | 71 | 1022.4 |
| 20260506150606 | 12 | 78 | 0.0 | 0.0 | 0.00 | 0.00 | 0.00 | 71 | 1022.0 |
| 20260506145600 | 12 | 118 | 0.0 | 0.0 | 0.00 | 0.00 | 0.00 | 71 | 1022.2 |
| 20260506145057 | 11 | 76 | 0.0 | 0.0 | 0.00 | 0.00 | 0.00 | 73 | 1022.1 |
| 20260506144554 | 11 | 100 | 0.0 | 0.0 | 0.00 | 0.00 | 0.00 | 74 | 1022.2 |
| 20260506144051 | 11 | 61 | 0.0 | 0.0 | 0.00 | 0.00 | 0.00 | 74 | 1022.1 |
| 20260506143549 | 11 | 77 | 0.0 | 0.0 | 0.00 | 0.00 | 0.00 | 73 | 1022.0 |
| 20260506143047 | 10 | 129 | 0.0 | 0.0 | 0.00 | 0.00 | 0.00 | 77 | 1022.0 |
| 20260506142544 | 10 | 104 | 1.6 | 1.6 | 0.00 | 0.00 | 0.00 | 76 | 1022.1 |
| 20260506142042 | 10 | 144 | 0.0 | 1.6 | 0.00 | 0.00 | 0.00 | 76 | 1022.0 |
| 20260506141540 | 10 | 245 | 1.6 | 1.6 | 0.00 | 0.00 | 0.00 | 78 | 1021.9 |
| 20260506141038 | 9 | 168 | 0.0 | 0.0 | 0.00 | 0.00 | 0.00 | 82 | 1021.8 |
| 20260506140535 | 7 | 179 | 0.0 | 0.0 | 0.00 | 0.00 | 0.00 | 90 | 1021.6 |
| 20260506140032 | 7 | 187 | 0.0 | 0.0 | 0.00 | 0.00 | 0.00 | 92 | 1021.6 |
| 20260506135529 | 6 | 198 | 0.0 | 0.0 | 0.00 | 0.00 | 0.00 | 94 | 1021.6 |
| 20260506135025 | 6 | 198 | 0.0 | 0.0 | 0.00 | 0.00 | 0.00 | 94 | 1021.5 |
| 20260506134522 | 6 | 201 | 0.0 | 0.0 | 0.00 | 0.00 | 0.00 | 94 | 1021.3 |
| 20260506134018 | 6 | 207 | 0.0 | 0.0 | 0.00 | 0.00 | 0.00 | 94 | 1021.2 |
| 20260506133515 | 5 | 206 | 0.0 | 0.0 | 0.00 | 0.00 | 0.00 | 94 | 1021.3 |
| 20260506133012 | 5 | 206 | 0.0 | 0.0 | 0.00 | 0.00 | 0.00 | 94 | 1021.2 |
| 20260506132509 | 5 | 229 | 0.0 | 0.0 | 0.00 | 0.00 | 0.00 | 94 | 1021.4 |
| 20260506132006 | 5 | 252 | 0.0 | 0.0 | 0.00 | 0.00 | 0.00 | 94 | 1020.9 |
| 20260506131503 | 5 | 225 | 0.0 | 0.0 | 0.00 | 0.00 | 0.00 | 94 | 1020.9 |
| 20260506130954 | 5 | 218 | 0.0 | 0.0 | 0.00 | 0.00 | 0.00 | 94 | 1020.9 |
| 20260506130451 | 5 | 247 | 0.0 | 0.0 | 0.00 | 0.00 | 0.00 | 93 | 1020.9 |
| 20260506125948 | 5 | 285 | 0.0 | 0.0 | 0.00 | 0.00 | 0.00 | 92 | 1020.8 |
| 20260506125447 | 5 | 286 | 0.0 | 0.0 | 0.00 | 0.00 | 0.00 | 91 | 1020.9 |
| 20260506124944 | 6 | 279 | 0.0 | 1.6 | 0.00 | 0.00 | 0.00 | 91 | 1020.6 |
| 20260506124442 | 6 | 272 | 3.2 | 3.2 | 0.00 | 0.00 | 0.00 | 92 | 1020.4 |
| 20260506123940 | 6 | 263 | 0.0 | 1.6 | 0.00 | 0.00 | 0.00 | 93 | 1020.1 |
| 20260506123438 | 5 | 263 | 0.0 | 0.0 | 0.00 | 0.00 | 0.00 | 92 | 1020.4 |
| 20260506122935 | 6 | 263 | 0.0 | 0.0 | 0.00 | 0.00 | 0.00 | 91 | 1020.4 |
| 20260506122431 | 6 | 279 | 1.6 | 3.2 | 0.00 | 0.00 | 0.00 | 92 | 1020.0 |
| 20260506121930 | 6 | 258 | 0.0 | 0.0 | 0.00 | 0.00 | 0.00 | 91 | 1020.0 |
| 20260506121426 | 6 | 261 | 0.0 | 0.0 | 0.00 | 0.00 | 0.00 | 92 | 1019.8 |
| 20260506120923 | 6 | 260 | 1.6 | 1.6 | 0.00 | 0.00 | 0.00 | 92 | 1020.0 |
| 20260506120421 | 6 | 250 | 0.0 | 1.6 | 0.00 | 0.00 | 0.00 | 91 | 1019.6 |
| 20260506115918 | 6 | 236 | 0.0 | 0.0 | 0.00 | 0.00 | 0.00 | 90 | 1019.7 |
| 20260506115416 | 6 | 233 | 1.6 | 1.6 | 0.00 | 0.00 | 0.00 | 91 | 1019.8 |
| 20260506114914 | 6 | 204 | 0.0 | 0.0 | 0.00 | 0.00 | 0.00 | 90 | 1019.7 |
| 20260506114411 | 6 | 273 | 3.2 | 3.2 | 0.00 | 0.00 | 0.00 | 90 | 1019.6 |
| 20260506113910 | 6 | 266 | 1.6 | 1.6 | 0.00 | 0.00 | 0.00 | 90 | 1019.4 |
| 20260506113407 | 6 | 274 | 3.2 | 3.2 | 0.00 | 0.00 | 0.00 | 91 | 1019.4 |
| 20260506112903 | 6 | 275 | 3.2 | 3.2 | 0.00 | 0.00 | 0.00 | 91 | 1019.3 |
| 20260506112401 | 6 | 262 | 0.0 | 0.0 | 0.00 | 0.00 | 0.00 | 90 | 1019.4 |
| 20260506111858 | 6 | 267 | 0.0 | 0.0 | 0.00 | 0.00 | 0.00 | 90 | 1019.4 |
| 20260506111356 | 6 | 215 | 0.0 | 0.0 | 0.00 | 0.00 | 0.00 | 90 | 1019.4 |
| 20260506110853 | 6 | 285 | 1.6 | 1.6 | 0.00 | 0.00 | 0.00 | 90 | 1019.2 |
| 20260506110350 | 6 | 283 | 1.6 | 1.6 | 0.00 | 0.00 | 0.00 | 89 | 1019.2 |
| 20260506105847 | 6 | 256 | 0.0 | 0.0 | 0.00 | 0.00 | 0.00 | 92 | 1019.3 |
| 20260506105343 | 6 | 256 | 0.0 | 0.0 | 0.00 | 0.00 | 0.00 | 92 | 1019.0 |
| 20260506104841 | 5 | 257 | 0.0 | 0.0 | 0.00 | 0.00 | 0.00 | 92 | 1018.9 |
| 20260506104339 | 6 | 264 | 0.0 | 0.0 | 0.00 | 0.00 | 0.00 | 91 | 1019.0 |
| 20260506103836 | 6 | 275 | 3.2 | 3.2 | 0.00 | 0.00 | 0.00 | 91 | 1018.9 |
| 20260506103334 | 5 | 267 | 0.0 | 1.6 | 0.00 | 0.00 | 0.00 | 91 | 1018.8 |
| 20260506102831 | 6 | 269 | 1.6 | 1.6 | 0.00 | 0.00 | 0.00 | 92 | 1018.8 |
| 20260506102329 | 6 | 286 | 1.6 | 1.6 | 0.00 | 0.00 | 0.00 | 92 | 1018.9 |
| 20260506101826 | 5 | 251 | 1.6 | 1.6 | 0.00 | 0.00 | 0.00 | 92 | 1018.9 |
| 20260506101321 | 5 | 201 | 0.0 | 0.0 | 0.00 | 0.00 | 0.00 | 91 | 1018.6 |
| 20260506100820 | 6 | 290 | 0.0 | 0.0 | 0.00 | 0.00 | 0.00 | 90 | 1018.6 |
| 20260506100318 | 6 | 292 | 0.0 | 1.6 | 0.00 | 0.00 | 0.00 | 89 | 1018.4 |
| 20260506095816 | 6 | 298 | 3.2 | 3.2 | 0.00 | 0.00 | 0.00 | 88 | 1018.4 |
| 20260506095313 | 6 | 245 | 1.6 | 1.6 | 0.00 | 0.00 | 0.00 | 87 | 1018.5 |
| 20260506094809 | 7 | 262 | 0.0 | 1.6 | 0.00 | 0.00 | 0.00 | 88 | 1018.4 |
| 20260506094308 | 6 | 267 | 3.2 | 3.2 | 0.00 | 0.00 | 0.00 | 89 | 1018.2 |
| 20260506093806 | 6 | 204 | 0.0 | 0.0 | 0.00 | 0.00 | 0.00 | 88 | 1018.2 |
| 20260506093302 | 7 | 273 | 1.6 | 1.6 | 0.00 | 0.00 | 0.00 | 87 | 1018.2 |
| 20260506092801 | 7 | 270 | 3.2 | 3.2 | 0.00 | 0.00 | 0.00 | 88 | 1018.3 |
| 20260506092258 | 7 | 282 | 1.6 | 1.6 | 0.00 | 0.00 | 0.00 | 87 | 1018.4 |
| 20260506091755 | 7 | 211 | 0.0 | 0.0 | 0.00 | 0.00 | 0.00 | 88 | 1017.8 |
| 20260506091253 | 7 | 237 | 0.0 | 0.0 | 0.00 | 0.00 | 0.00 | 88 | 1018.1 |
| 20260506090751 | 7 | 258 | 0.0 | 1.6 | 0.00 | 0.00 | 0.00 | 87 | 1018.2 |
| 20260506090247 | 7 | 262 | 1.6 | 1.6 | 0.00 | 0.00 | 0.00 | 87 | 1017.8 |
| 20260506085744 | 7 | 250 | 1.6 | 1.6 | 0.00 | 0.00 | 0.00 | 87 | 1017.9 |
| 20260506085240 | 7 | 275 | 3.2 | 3.2 | 0.00 | 0.00 | 0.00 | 87 | 1017.9 |
| 20260506084737 | 7 | 269 | 1.6 | 1.6 | 0.00 | 0.00 | 0.00 | 87 | 1017.8 |
| 20260506084233 | 7 | 228 | 1.6 | 1.6 | 0.00 | 0.00 | 0.00 | 87 | 1017.6 |
| 20260506083730 | 7 | 262 | 1.6 | 3.2 | 0.00 | 0.00 | 0.00 | 85 | 1018.1 |
| 20260506083228 | 7 | 286 | 1.6 | 3.2 | 0.00 | 0.00 | 0.00 | 86 | 1018.1 |
| 20260506082725 | 7 | 262 | 0.0 | 0.0 | 0.00 | 0.00 | 0.00 | 87 | 1018.1 |
| 20260506082221 | 7 | 274 | 0.0 | 0.0 | 0.00 | 0.00 | 0.00 | 88 | 1018.1 |
| 20260506081719 | 7 | 298 | 0.0 | 0.0 | 0.00 | 0.00 | 0.00 | 88 | 1017.8 |
| 20260506081216 | 7 | 298 | 0.0 | 0.0 | 0.00 | 0.00 | 0.00 | 86 | 1017.9 |
| 20260506080714 | 7 | 298 | 0.0 | 0.0 | 0.00 | 0.00 | 0.00 | 84 | 1017.8 |
| 20260506080210 | 7 | 298 | 4.8 | 4.8 | 0.00 | 0.00 | 0.00 | 83 | 1017.7 |
| 20260506073154 | 8 | 289 | 1.6 | 3.2 | 0.00 | 0.48 | 0.48 | 84 | 1017.3 |
| 20260506072650 | 7 | 201 | 0.0 | 0.0 | 0.00 | 0.48 | 0.48 | 87 | 1017.5 |
| 20260506072148 | 8 | 205 | 0.0 | 0.0 | 0.00 | 0.48 | 0.48 | 84 | 1017.4 |
| 20260506071646 | 8 | 268 | 0.0 | 0.0 | 0.00 | 0.48 | 0.48 | 83 | 1017.0 |
| 20260506071143 | 8 | 196 | 0.0 | 0.0 | 0.00 | 0.48 | 0.48 | 83 | 1017.1 |
| 20260506070640 | 9 | 177 | 0.0 | 0.0 | 0.00 | 0.48 | 0.48 | 80 | 1017.1 |
| 20260506070137 | 9 | 270 | 0.0 | 0.0 | 0.00 | 0.48 | 0.48 | 79 | 1017.3 |
| 20260506062115 | 8 | 173 | 4.8 | 4.8 | 0.00 | 0.48 | 0.48 | 84 | 1017.5 |
| 20260506061610 | 9 | 179 | 4.8 | 4.8 | 0.00 | 0.48 | 0.48 | 82 | 1017.5 |
| 20260506061108 | 8 | 323 | 1.6 | 3.2 | 0.00 | 0.48 | 0.48 | 82 | 1017.4 |
| 20260506060606 | 8 | 224 | 0.0 | 0.0 | 0.00 | 0.48 | 0.48 | 83 | 1017.6 |
| 20260506051035 | 8 | 189 | 0.0 | 0.0 | 0.00 | 0.48 | 0.48 | 82 | 1016.0 |
| 20260506050533 | 8 | 258 | 1.6 | 1.6 | 0.00 | 0.48 | 0.48 | 81 | 1016.2 |
| 20260506045023 | 8 | 230 | 0.0 | 0.0 | 0.00 | 0.48 | 0.48 | 81 | 1016.0 |
| 20260506044521 | 8 | 237 | 1.6 | 1.6 | 0.00 | 0.48 | 0.48 | 80 | 1015.4 |
| 20260506044018 | 8 | 258 | 0.0 | 1.6 | 0.00 | 0.48 | 0.48 | 79 | 1015.9 |
| 20260506043515 | 9 | 274 | 3.2 | 3.2 | 0.00 | 0.48 | 0.48 | 79 | 1015.6 |
| 20260506043013 | 8 | 235 | 0.0 | 1.6 | 0.00 | 0.48 | 0.48 | 80 | 1015.6 |
| 20260506042512 | 8 | 241 | 1.6 | 1.6 | 0.00 | 0.48 | 0.48 | 80 | 1015.6 |
| 20260506042010 | 8 | 217 | 0.0 | 0.0 | 0.00 | 0.48 | 0.48 | 84 | 1015.5 |
| 20260506041508 | 9 | 206 | 0.0 | 0.0 | 0.00 | 0.48 | 0.48 | 84 | 1015.8 |
| 20260506041005 | 9 | 170 | 0.0 | 0.0 | 0.00 | 0.48 | 0.48 | 80 | 1015.8 |
| 20260506040502 | 10 | 260 | 3.2 | 3.2 | 0.00 | 0.48 | 0.48 | 76 | 1015.6 |
| 20260506035958 | 10 | 204 | 1.6 | 1.6 | 0.00 | 0.48 | 0.48 | 75 | 1015.8 |
| 20260506035455 | 10 | 264 | 3.2 | 3.2 | 0.00 | 0.48 | 0.48 | 76 | 1015.6 |
| 20260506034951 | 10 | 272 | 3.2 | 3.2 | 0.00 | 0.48 | 0.48 | 75 | 1015.3 |
| 20260506034449 | 10 | 254 | 1.6 | 1.6 | 0.00 | 0.48 | 0.48 | 76 | 1015.5 |
| 20260506033946 | 10 | 252 | 0.0 | 1.6 | 0.00 | 0.48 | 0.48 | 76 | 1015.2 |
| 20260506033444 | 10 | 240 | 0.0 | 1.6 | 0.00 | 0.48 | 0.48 | 77 | 1015.0 |
| 20260506032940 | 10 | 240 | 0.0 | 0.0 | 0.00 | 0.48 | 0.48 | 76 | 1015.1 |
| 20260506032437 | 10 | 261 | 1.6 | 1.6 | 0.00 | 0.48 | 0.48 | 77 | 1014.8 |
| 20260506031934 | 10 | 252 | 1.6 | 1.6 | 0.00 | 0.48 | 0.48 | 78 | 1014.7 |
| 20260506031431 | 10 | 196 | 0.0 | 0.0 | 0.00 | 0.48 | 0.48 | 80 | 1014.6 |
| 20260506030929 | 10 | 196 | 0.0 | 0.0 | 0.00 | 0.48 | 0.48 | 78 | 1014.7 |
| 20260506030427 | 10 | 207 | 0.0 | 0.0 | 0.00 | 0.48 | 0.48 | 75 | 1014.7 |
| 20260506025923 | 10 | 196 | 0.0 | 0.0 | 0.00 | 0.48 | 0.48 | 77 | 1014.6 |
| 20260506025420 | 10 | 205 | 0.0 | 0.0 | 0.00 | 0.48 | 0.48 | 76 | 1014.5 |
| 20260506024917 | 11 | 263 | 1.6 | 3.2 | 0.00 | 0.48 | 0.48 | 73 | 1014.4 |
| 20260506024414 | 11 | 264 | 0.0 | 0.0 | 0.00 | 0.48 | 0.48 | 73 | 1014.3 |
| 20260506023910 | 11 | 260 | 0.0 | 0.0 | 0.00 | 0.48 | 0.48 | 72 | 1014.3 |
| 20260506023407 | 11 | 248 | 0.0 | 0.0 | 0.00 | 0.48 | 0.48 | 75 | 1014.4 |
| 20260506022903 | 11 | 260 | 0.0 | 0.0 | 0.00 | 0.48 | 0.48 | 74 | 1014.0 |
| 20260506022401 | 11 | 233 | 0.0 | 0.0 | 0.00 | 0.48 | 0.48 | 75 | 1014.1 |
| 20260506021859 | 11 | 214 | 0.0 | 0.0 | 0.00 | 0.48 | 0.48 | 74 | 1014.1 |
| 20260506021356 | 12 | 223 | 0.0 | 0.0 | 0.00 | 0.48 | 0.48 | 72 | 1013.9 |
| 20260506020852 | 12 | 263 | 0.0 | 0.0 | 0.00 | 0.48 | 0.48 | 70 | 1014.1 |
| 20260506020351 | 12 | 223 | 0.0 | 0.0 | 0.00 | 0.48 | 0.48 | 70 | 1014.0 |
| 20260506015848 | 12 | 233 | 0.0 | 0.0 | 0.00 | 0.48 | 0.48 | 69 | 1014.1 |
| 20260506015345 | 12 | 228 | 0.0 | 0.0 | 0.00 | 0.48 | 0.48 | 67 | 1013.9 |
| 20260506014842 | 12 | 239 | 0.0 | 0.0 | 0.00 | 0.48 | 0.48 | 70 | 1013.8 |
| 20260506014338 | 13 | 211 | 0.0 | 0.0 | 0.00 | 0.48 | 0.48 | 67 | 1013.8 |
| 20260506013835 | 13 | 211 | 0.0 | 0.0 | 0.00 | 0.48 | 0.48 | 67 | 1014.0 |
| 20260506013333 | 13 | 219 | 0.0 | 0.0 | 0.00 | 0.48 | 0.48 | 69 | 1014.1 |
| 20260506012829 | 13 | 200 | 0.0 | 0.0 | 0.00 | 0.48 | 0.48 | 65 | 1013.9 |
| 20260506012326 | 14 | 208 | 0.0 | 0.0 | 0.00 | 0.48 | 0.48 | 65 | 1014.3 |
| 20260506011823 | 16 | 242 | 1.6 | 3.2 | 0.00 | 0.48 | 0.48 | 59 | 1013.9 |
| 20260506011320 | 18 | 221 | 0.0 | 0.0 | 0.00 | 0.48 | 0.48 | 53 | 1013.9 |
| 20260506010817 | 19 | 215 | 0.0 | 1.6 | 0.00 | 0.48 | 0.48 | 49 | 1014.1 |
| 20260506010315 | 18 | 207 | 0.0 | 0.0 | 0.00 | 0.48 | 0.48 | 55 | 1013.9 |
| 20260506005812 | 17 | 188 | 1.6 | 1.6 | 0.00 | 0.48 | 0.48 | 53 | 1014.1 |
| 20260506005309 | 17 | 163 | 0.0 | 0.0 | 0.00 | 0.48 | 0.48 | 46 | 1014.0 |
| 20260506004805 | 18 | 139 | 0.0 | 1.6 | 0.00 | 0.48 | 0.48 | 48 | 1014.0 |
| 20260506004303 | 18 | 81 | 3.2 | 3.2 | 0.00 | 0.48 | 0.48 | 46 | 1014.1 |
| 20260506003759 | 18 | 167 | 0.0 | 0.0 | 0.00 | 0.48 | 0.48 | 43 | 1014.3 |
| 20260506003256 | 18 | 341 | 0.0 | 1.6 | 0.00 | 0.48 | 0.48 | 43 | 1013.9 |
| 20260506002751 | 19 | 241 | 3.2 | 3.2 | 0.00 | 0.48 | 0.48 | 40 | 1014.0 |
| 20260506002247 | 19 | 76 | 1.6 | 1.6 | 0.00 | 0.48 | 0.48 | 40 | 1014.0 |
| 20260506001743 | 18 | 151 | 0.0 | 1.6 | 0.00 | 0.48 | 0.48 | 43 | 1013.9 |
| 20260506001241 | 18 | 308 | 1.6 | 3.2 | 0.00 | 0.48 | 0.48 | 40 | 1014.3 |
| 20260506000738 | 18 | 312 | 3.2 | 3.2 | 0.00 | 0.48 | 0.48 | 46 | 1014.0 |
| 20260506000235 | 18 | 216 | 3.2 | 4.8 | 0.00 | 0.48 | 0.48 | 44 | 1013.9 |
| 20260505235732 | 18 | 343 | 1.6 | 1.6 | 0.00 | 0.48 | 0.48 | 48 | 1014.1 |
| 20260505235230 | 18 | 349 | 3.2 | 3.2 | 0.00 | 0.48 | 0.48 | 43 | 1014.0 |
| 20260505234726 | 18 | 7 | 4.8 | 4.8 | 0.00 | 0.48 | 0.48 | 45 | 1014.1 |
| 20260505234224 | 18 | 46 | 1.6 | 3.2 | 0.00 | 0.48 | 0.48 | 44 | 1014.1 |
| 20260505233720 | 18 | 20 | 8.0 | 8.0 | 0.00 | 0.48 | 0.48 | 44 | 1014.0 |
| 20260505233219 | 18 | 209 | 4.8 | 9.7 | 0.00 | 0.48 | 0.48 | 46 | 1014.3 |
| 20260505232715 | 18 | 275 | 3.2 | 4.8 | 0.00 | 0.48 | 0.48 | 48 | 1014.3 |
| 20260505232213 | 18 | 342 | 1.6 | 3.2 | 0.00 | 0.48 | 0.48 | 47 | 1014.3 |
| 20260505231709 | 18 | 332 | 3.2 | 3.2 | 0.00 | 0.48 | 0.48 | 46 | 1014.1 |
| 20260505231208 | 17 | 258 | 1.6 | 3.2 | 0.00 | 0.48 | 0.48 | 45 | 1014.3 |
| 20260505230706 | 18 | 260 | 1.6 | 1.6 | 0.00 | 0.48 | 0.48 | 48 | 1014.5 |
| 20260505230202 | 18 | 44 | 4.8 | 4.8 | 0.00 | 0.48 | 0.48 | 47 | 1014.4 |
| 20260505225659 | 18 | 357 | 3.2 | 4.8 | 0.00 | 0.48 | 0.48 | 53 | 1014.7 |
| 20260505225156 | 17 | 28 | 6.4 | 9.7 | 0.00 | 0.48 | 0.48 | 50 | 1014.6 |
| 20260505224651 | 17 | 12 | 8.0 | 9.7 | 0.00 | 0.48 | 0.48 | 47 | 1014.6 |
| 20260505224149 | 17 | 7 | 1.6 | 4.8 | 0.00 | 0.48 | 0.48 | 57 | 1014.4 |
| 20260505223646 | 17 | 278 | 3.2 | 3.2 | 0.00 | 0.48 | 0.48 | 49 | 1014.5 |
| 20260505223142 | 17 | 313 | 3.2 | 4.8 | 0.00 | 0.48 | 0.48 | 49 | 1014.6 |
| 20260505222633 | 17 | 66 | 3.2 | 3.2 | 0.00 | 0.48 | 0.48 | 54 | 1014.7 |
| 20260505222129 | 17 | 63 | 1.6 | 1.6 | 0.00 | 0.48 | 0.48 | 50 | 1014.6 |
| 20260505221626 | 17 | 245 | 1.6 | 1.6 | 0.00 | 0.48 | 0.48 | 48 | 1014.7 |
| 20260505221123 | 16 | 73 | 4.8 | 4.8 | 0.00 | 0.48 | 0.48 | 54 | 1014.7 |
| 20260505220621 | 16 | 355 | 4.8 | 4.8 | 0.00 | 0.48 | 0.48 | 51 | 1014.8 |
| 20260505220118 | 16 | 25 | 4.8 | 8.0 | 0.00 | 0.48 | 0.48 | 56 | 1014.7 |
| 20260505215616 | 16 | 50 | 6.4 | 9.7 | 0.00 | 0.48 | 0.48 | 57 | 1014.6 |
| 20260505215113 | 16 | 45 | 3.2 | 3.2 | 0.00 | 0.48 | 0.48 | 56 | 1015.0 |
| 20260505214611 | 16 | 53 | 3.2 | 4.8 | 0.00 | 0.48 | 0.48 | 56 | 1015.2 |
| 20260505214108 | 16 | 0 | 6.4 | 11.3 | 0.00 | 0.48 | 0.48 | 55 | 1014.8 |
| 20260505213606 | 16 | 342 | 3.2 | 4.8 | 0.00 | 0.48 | 0.48 | 61 | 1015.0 |
| 20260505213102 | 16 | 2 | 6.4 | 8.0 | 0.00 | 0.48 | 0.48 | 55 | 1015.2 |
| 20260505212558 | 16 | 74 | 6.4 | 8.0 | 0.00 | 0.48 | 0.48 | 62 | 1015.2 |
| 20260505212056 | 15 | 129 | 3.2 | 4.8 | 0.00 | 0.48 | 0.48 | 60 | 1015.2 |
| 20260505211553 | 15 | 68 | 4.8 | 4.8 | 0.00 | 0.48 | 0.48 | 59 | 1015.3 |
| 20260505211050 | 15 | 74 | 3.2 | 4.8 | 0.00 | 0.48 | 0.48 | 68 | 1015.5 |
| 20260505210546 | 14 | 67 | 4.8 | 8.0 | 0.00 | 0.48 | 0.48 | 62 | 1015.4 |
| 20260505210044 | 15 | 97 | 9.7 | 11.3 | 0.00 | 0.48 | 0.48 | 62 | 1015.4 |
| 20260505205541 | 15 | 16 | 1.6 | 3.2 | 0.00 | 0.48 | 0.48 | 61 | 1015.3 |
| 20260505205038 | 15 | 91 | 1.6 | 1.6 | 0.00 | 0.48 | 0.48 | 71 | 1015.4 |
| 20260505204536 | 15 | 359 | 0.0 | 1.6 | 0.00 | 0.48 | 0.48 | 60 | 1015.4 |
| 20260505204033 | 14 | 12 | 4.8 | 4.8 | 0.00 | 0.48 | 0.48 | 68 | 1015.6 |
| 20260505203529 | 13 | 111 | 4.8 | 4.8 | 0.00 | 0.48 | 0.48 | 68 | 1015.6 |
| 20260505203027 | 13 | 73 | 4.8 | 9.7 | 0.00 | 0.48 | 0.48 | 67 | 1015.9 |
| 20260505202523 | 13 | 5 | 4.8 | 4.8 | 0.00 | 0.48 | 0.48 | 67 | 1015.6 |
| 20260505202018 | 13 | 345 | 6.4 | 9.7 | 0.00 | 0.48 | 0.48 | 72 | 1015.5 |
| 20260505201516 | 12 | 88 | 4.8 | 4.8 | 0.00 | 0.48 | 0.48 | 72 | 1015.8 |
| 20260505201013 | 13 | 9 | 1.6 | 3.2 | 0.00 | 0.48 | 0.48 | 75 | 1015.9 |
| 20260505200511 | 13 | 20 | 3.2 | 3.2 | 0.00 | 0.48 | 0.48 | 72 | 1015.9 |
| 20260505200008 | 12 | 292 | 1.6 | 1.6 | 0.00 | 0.48 | 0.48 | 75 | 1016.1 |
| 20260505195504 | 12 | 167 | 1.6 | 3.2 | 0.00 | 0.48 | 0.48 | 76 | 1016.0 |
| 20260505195001 | 12 | 136 | 1.6 | 3.2 | 0.00 | 0.48 | 0.48 | 75 | 1016.0 |
| 20260505194459 | 11 | 149 | 3.2 | 4.8 | 0.00 | 0.48 | 0.48 | 76 | 1015.8 |
| 20260505193958 | 11 | 111 | 6.4 | 8.0 | 0.00 | 0.48 | 0.48 | 78 | 1015.9 |
| 20260505193456 | 11 | 87 | 0.0 | 0.0 | 0.00 | 0.48 | 0.48 | 78 | 1016.0 |
| 20260505192953 | 10 | 172 | 1.6 | 3.2 | 0.00 | 0.48 | 0.48 | 79 | 1015.8 |
| 20260505192452 | 11 | 114 | 1.6 | 1.6 | 0.00 | 0.48 | 0.48 | 81 | 1015.9 |
| 20260505191949 | 11 | 99 | 1.6 | 1.6 | 0.00 | 0.48 | 0.48 | 81 | 1015.8 |
| 20260505191448 | 10 | 129 | 6.4 | 8.0 | 0.00 | 0.48 | 0.48 | 80 | 1016.0 |
| 20260505190944 | 10 | 92 | 0.0 | 1.6 | 0.00 | 0.48 | 0.48 | 80 | 1015.8 |
| 20260505190439 | 10 | 121 | 3.2 | 3.2 | 0.00 | 0.48 | 0.48 | 82 | 1015.6 |
| 20260505185935 | 10 | 173 | 4.8 | 4.8 | 0.00 | 0.48 | 0.48 | 79 | 1015.6 |
| 20260505185433 | 10 | 229 | 0.0 | 0.0 | 0.00 | 0.48 | 0.48 | 78 | 1016.0 |